Regional Weather Roundup
Issued by NWS

Home | Current Version | Previous Version | Graphics & Text | Print | Product List | Glossary On
Versions: 1 2 3 4 5 6 7 8 9 10 11 12 13 14 15 16 17 18 19 20 21 22 23 24 25 26 27 28 29 30 31 32 33 34 35 36 37 38 39 40 41 42 43 44 45 46 47 48 49 50
000
ASUS44 KMEG 170410
RWRTN
TENNESSEE HOURLY STATE WEATHER ROUNDUP
NATIONAL WEATHER SERVICE MEMPHIS TN
1100 PM CDT TUE SEP 16 2014

TNZ002-004-019-021-049-052-054-088>092-170500-
WEST TENNESSEE

CITY           SKY/WX    TMP DP  RH WIND       PRES   REMARKS
MEMPHIS INTL   PTCLDY    69  61  75 NE7       30.07S
NWS MEMPHIS      N/A     67 N/A N/A MISG        N/A
JACKSON        CLOUDY    63  61  93 CALM      30.08R
DYERSBURG      CLOUDY    64  50  59 N5        30.10R
UNION CITY     MOCLDY    59  54  82 NE7       30.09S
PARIS          PTCLDY    55  52  88 NE3       30.10S
HUNTINGDON     CLOUDY    61  54  77 N5        30.09R
LEXINGTON      CLOUDY    63  59  88 CALM      30.07S
SAVANNAH       PTCLDY    63  63 100 CALM      30.07S
$$

TNZ008-025-027-028-033-062-065-066-170500-
NORTH MIDDLE TENNESSEE

CITY           SKY/WX    TMP DP  RH WIND       PRES   REMARKS
NASHVILLE      PTCLDY    63  56  78 NW5       30.07S
DICKSON        CLEAR     55  54  94 CALM      30.08S
PORTLAND       CLEAR     55  54  94 CALM      30.08R
CLARKSVILLE    CLEAR     56  52  86 NW5       30.09R
LEBANON          N/A     57  57 100 CALM      30.06R
SMYRNA         PTCLDY    61  58  90 CALM      30.08R
MURFREESBORO   CLEAR     64  60  87 N3        30.06S
COOKEVILLE     CLOUDY    61  59  94 CALM      30.06S VSB 1/4
GALLATIN       CLEAR     61  58  90 N5        30.08R
CROSSVILLE     CLEAR     61  57  87 NW3       30.09R FOG
$$

TNZ061-075-076-078-094-096-097-170500-
SOUTH MIDDLE TENNESSEE

CITY           SKY/WX    TMP DP  RH WIND       PRES   REMARKS
LEWISBURG      MOCLDY    63  60  90 CALM      30.07R
FAYETTEVILLE   CLEAR     63  63 100 N3        30.06F
TULLAHOMA      MOCLDY    63  61  94 CALM      30.08S
WINCHESTER     PTCLDY    64  63  94 CALM      30.07S
MCMINNVILLE      N/A     61  61 100 CALM      30.07S VSB 1/4
COLUMBIA       PTCLDY    63  63 100 CALM      30.06S
SHELBYVILLE    PTCLDY    64  64 100 N5        30.08R
$$

TNZ017-018-042-046-047-170500-
NORTHEAST TENNESSEE

CITY           SKY/WX    TMP DP  RH WIND       PRES   REMARKS
TRI CITIES     MOCLDY    63  58  83 CALM      30.05S
ELIZABETHTON   PTCLDY    59  57  94 CALM      30.05S
$$

TNZ012-013-036-069-073-074-170500-
CENTRAL EAST TENNESSEE

CITY           SKY/WX    TMP DP  RH WIND       PRES   REMARKS
KNOXVILLE      MOCLDY    68  62  81 CALM      30.04R
OAK RIDGE      CLEAR     62  60  93 CALM      30.06S
GATLINBURG     CLOUDY    64  63  94 CALM      30.04S
MORRISTOWN     PTCLDY    64  61  88 CALM      30.06S
$$

TNZ083-085-099-170500-
SOUTHEAST TENNESSEE

CITY           SKY/WX    TMP DP  RH WIND       PRES   REMARKS
CHATTANOOGA    PTCLDY    71  63  75 N9        30.04S
$$

SKY/WX REPORTED AS FAIR MEANS FEW OR NO CLOUDS BELOW
12 THOUSAND FEET.




USA.gov is the U.S. government's official web portal to all federal, state and local government web resources and services.